Location: College Park
(38.9810°N, 76.9370°W)
Time: 23:24:00
(UTC-04:00)

Vanguard 2 - All Passes

Search period start: 21 June 2018 00:00
Search period end: 01 July 2018 00:00
Orbit: 553 x 2939 km, 32.9° (Epoch: 21 June)

Date Brightness Start Highest point End Pass type
(mag) Time Alt. Az. Time Alt. Az. Time Alt. Az.
21 Jun - 01:49:32 10° SSE 01:50:20 10° SSE 01:51:06 10° SSE visible
21 Jun - 03:53:32 10° SW 03:59:15 25° SSE 04:03:24 10° ESE visible
21 Jun - 06:02:33 10° WSW 06:07:26 38° S 06:11:13 10° ESE daylight
21 Jun - 08:11:37 10° WSW 08:15:08 28° SSW 08:18:38 10° SE daylight
22 Jun - 02:03:26 10° S 02:08:28 16° SSE 02:12:28 10° ESE visible
22 Jun - 04:11:01 10° SW 04:17:18 31° SSE 04:21:41 10° ESE visible
22 Jun - 06:20:34 10° WSW 06:25:24 39° S 06:29:12 10° ESE daylight
22 Jun - 08:29:53 10° WSW 08:33:03 22° SSW 08:36:12 10° SE daylight
23 Jun - 02:19:46 10° SSW 02:26:35 22° SSE 02:31:31 10° ESE visible
23 Jun - 04:28:45 10° WSW 04:35:20 38° S 04:39:47 10° ESE visible
23 Jun - 06:38:39 10° WSW 06:43:21 37° S 06:47:05 10° ESE daylight
23 Jun - 08:48:25 10° WSW 08:50:54 16° SSW 08:53:25 10° SSE daylight
24 Jun - 00:31:14 10° S 00:35:12 12° SSE 00:38:39 10° SE night (unlit)
24 Jun - 02:36:47 10° SW 02:44:42 28° SSE 02:50:03 10° ESE visible
24 Jun - 04:46:41 10° WSW 04:53:21 43° S 04:57:50 10° ESE visible
24 Jun - 06:56:49 10° WSW 07:01:16 33° SSW 07:04:54 10° SE daylight
24 Jun - 09:07:59 10° SW 09:08:45 10° SSW 09:09:31 10° SSW daylight
25 Jun - 00:46:07 10° SSW 00:53:22 18° SSE 00:58:54 10° ESE visible
25 Jun - 02:54:13 10° SW 03:02:47 35° SSE 03:08:20 10° ESE visible
25 Jun - 05:04:44 10° WSW 05:11:21 46° S 05:15:47 10° ESE visible
25 Jun - 07:15:04 10° WSW 07:19:09 27° SSW 07:22:34 10° SE daylight
26 Jun - 01:02:23 10° SSW 01:11:31 25° SSE 01:17:56 10° ESE visible
26 Jun - 03:11:56 10° SW 03:20:52 42° S 03:26:27 10° E visible
26 Jun - 05:22:52 10° WSW 05:29:20 45° S 05:33:43 10° ESE daylight
26 Jun - 07:33:27 10° WSW 07:36:57 20° SSW 07:39:59 10° SSE daylight
26 Jun - 23:13:45 10° S 23:19:34 14° SSE 23:24:31 10° ESE night (unlit)
27 Jun - 01:19:18 10° SW 01:29:39 31° SSE 01:36:30 10° E visible
27 Jun - 03:29:51 10° WSW 03:38:56 48° S 03:44:30 10° E visible
27 Jun - 05:41:04 10° W 05:47:17 42° SSW 05:51:34 10° ESE daylight
27 Jun - 07:52:15 10° WSW 07:54:42 14° SSW 07:56:57 10° S daylight
27 Jun - 23:28:35 10° S 23:37:42 20° SSE 23:44:46 10° ESE visible
28 Jun - 01:36:39 10° SW 01:47:46 39° SSE 01:54:49 10° E visible
28 Jun - 03:47:56 10° WSW 03:56:58 52° S 04:02:30 10° ESE visible
28 Jun - 05:59:18 10° W 06:05:10 36° SSW 06:09:19 10° SE daylight
28 Jun - 23:44:40 10° SSW 23:55:50 26° SSE 00:03:54 10° ESE visible
29 Jun - 01:54:18 10° SW 02:05:52 46° SSE 02:12:59 10° E visible
29 Jun - 04:06:06 10° WSW 04:15:00 53° S 04:20:26 10° ESE visible
29 Jun - 06:17:39 10° W 06:22:59 29° SSW 06:26:54 10° SE daylight
29 Jun - 21:56:45 10° S 22:03:25 14° SE 22:09:17 10° ESE visible
30 Jun - 00:01:25 10° SSW 00:13:58 33° SSE 00:22:33 10° E visible
30 Jun - 02:12:11 10° WSW 02:23:58 52° S 02:31:03 10° E visible
30 Jun - 04:24:20 10° W 04:33:00 51° S 04:38:20 10° ESE visible
30 Jun - 06:36:09 10° W 06:40:43 22° SSW 06:44:15 10° SSE daylight
30 Jun - 22:11:12 10° S 22:21:30 20° SSE 22:29:52 10° ESE visible
